sat.trackr.live / text

‹ back to catalog

YAOGAN-16 01A

NORAD 39011 · 2012-066A

PAYLOAD ACTIVE UNKNOWN

§ Identity

Operator
Country
PRC
Launch date
2012-11-25
Launch site
JSC
Launch vehicle
Mass (kg)
RCS (m²)
2.51

External: N2YO · Heavens-Above · Gunter

§ Orbital elements

Epoch: 2026-09-19T08:15:20.585664Z

Period
107.02 min
Inclination
63.3530°
Eccentricity
0.0443009
Mean motion
13.45521851 rev/d
Perigee alt
758.0 km
Apogee alt
1,419.6 km
Semi-major
7,466.9 km
B*
1.9973e-5
RAAN
46.5872°
Arg perigee
27.9423°
Mean anomaly
334.4645°
Rev number
67,881

§ Raw data

YAOGAN-16 01A1 39011U 12066A   26262.34398826 -.00000070  00000+0  19973-4 0  99902 39011  63.3530  46.5872 0443009  27.9423 334.4645 13.45521851678819

JSON: /api/v1/satellites/39011 · /tle

For live sub-satellite position, see the globe view (requires WebGL).

§ Visibility from observer

Set your observer location to see the next 7 days of passes ≥ 10°. The values pass through the URL so the page stays shareable.

No JS? Fill the form by hand. The geolocation button needs JavaScript.